Zurück zum Katalog

NOAA 16 DEB

AktivPO
NORAD 41362·DEBRIS·🇺🇸 United States

Gestartet Sep 21, 2000 von Vandenberg Space Force Base

Loading…

Nächste Überflüge (nächste 24 Stunden)

TLE

AktuellSource: Space-Track

Epoche: Sep 14, 2026, 14:29 UTC

1 41362U 00055JF  26257.60390730  .00005922  00000-0  11723-2 0  9990
2 41362  98.9477 130.0521 0030519  94.0038 266.4650 14.62435726555921

Verfolge NOAA 16 DEB in Echtzeit mit AllMySat

Download on the App Store